Location: The Dilly Hill Observatory
(31.5262°N, 86.8310°W)
Time: 18:32:09
(UTC-06:00)

Envisat - Visible Passes

Search period start: 21 January 2018 00:00
Search period end: 31 January 2018 00:00
Orbit: 764 x 766 km, 98.2° (Epoch: 21 January)

Date Brightness Start Highest point End Pass type
(mag) Time Alt. Az. Time Alt. Az. Time Alt. Az.
23 Jan 5.3 19:16:42 11° N 19:16:42 11° N 19:16:56 10° N visible
24 Jan 5.1 18:39:16 11° NNE 18:39:16 11° NNE 18:39:24 10° NNE visible
25 Jan 5.3 19:42:01 13° NNW 19:42:01 13° NNW 19:42:37 10° NNW visible
26 Jan 4.9 19:04:35 16° N 19:04:35 16° N 19:05:39 10° N visible
27 Jan 4.9 18:27:07 12° NNE 18:27:07 12° NNE 18:27:48 10° NNE visible
27 Jan 5.5 20:07:18 13° NNW 20:07:18 13° NNW 20:07:56 10° NNW visible
28 Jan 4.7 19:29:51 21° N 19:29:51 21° N 19:31:29 10° N visible
29 Jan 4.5 18:52:23 21° NNE 18:52:23 21° NNE 18:54:19 10° N visible
29 Jan 5.8 20:32:34 11° NW 20:32:34 11° NW 20:32:45 10° NW visible
30 Jan 4.8 18:14:54 12° NE 18:14:54 12° NE 18:15:57 10° NE visible
30 Jan 4.9 19:55:05 22° NNW 19:55:05 22° NNW 19:56:57 10° NNW visible
